Time,TemperatureF,DewpointF,PressureIn,WindDirection,WindDirectionDegrees,WindSpeedMPH,WindSpeedGustMPH,Humidity,HourlyPrecipIn,Conditions,Clouds,dailyrainin,SoftwareType,DateUTC
2013-06-07 18:10:00,70.0,68.5,29.59,ESE,112,0.0,1.0,95,0.00,,SCT120,0.00,VWS V14.01,2013-06-07 22:10:00,
2013-06-07 20:27:00,72.0,66.6,29.67,ESE,112,0.0,1.0,83,0.00,,SCT120,-99.99,VWS V14.01,2013-06-08 00:27:00,
2013-06-07 20:35:00,70.0,68.2,29.59,ESE,112,2.0,2.0,94,0.00,,BKN060,-99.99,VWS V14.01,2013-06-08 00:35:00,
2013-06-07 20:36:00,70.0,68.2,29.59,ESE,112,2.0,2.0,94,0.00,,BKN060,0.00,VWS V14.01,2013-06-08 00:36:00,
2013-06-07 20:41:00,70.0,68.2,29.59,ESE,112,1.0,1.0,94,0.00,,SCT120,0.00,VWS V14.01,2013-06-08 00:41:00,
2013-06-07 20:47:00,71.0,65.6,29.68,ESE,112,0.0,1.0,83,0.00,,SCT120,0.00,VWS V14.01,2013-06-08 00:47:00,
2013-06-07 20:52:00,71.0,65.6,29.68,ESE,112,0.0,0.0,83,0.00,,SCT120,0.00,VWS V14.01,2013-06-08 00:52:00,
2013-06-07 20:57:00,71.0,65.6,29.68,ESE,112,0.0,0.0,83,0.00,,SCT120,0.00,VWS V14.01,2013-06-08 00:57:00,
2013-06-07 21:02:00,71.0,65.6,29.68,ESE,112,0.0,0.0,83,0.00,,SCT110,0.00,VWS V14.01,2013-06-08 01:02:00,
2013-06-07 21:07:00,71.0,65.6,29.68,ESE,112,0.0,0.0,83,0.00,,SCT110,0.00,VWS V14.01,2013-06-08 01:07:00,
2013-06-07 21:12:00,71.0,65.9,29.68,ESE,112,0.0,0.0,84,0.00,,SCT110,0.00,VWS V14.01,2013-06-08 01:12:00,
2013-06-07 21:17:00,71.0,65.9,29.69,ESE,112,0.0,0.0,84,0.00,,SCT110,0.00,VWS V14.01,2013-06-08 01:17:00,
2013-06-07 21:23:00,71.0,65.9,29.69,ESE,112,0.0,0.0,84,0.00,,-RA,0.00,VWS V14.01,2013-06-08 01:23:00,
2013-06-07 21:28:00,70.0,64.9,29.69,ESE,112,0.0,0.0,84,0.00,,-RA,0.00,VWS V14.01,2013-06-08 01:28:00,
2013-06-07 21:33:00,70.0,64.9,29.69,ESE,112,0.0,0.0,84,0.00,,-RA,0.00,VWS V14.01,2013-06-08 01:33:00,
2013-06-07 21:38:00,70.0,65.6,29.70,East,90,0.0,0.0,86,0.00,,-RA,0.00,VWS V14.01,2013-06-08 01:38:00,
2013-06-07 21:43:00,70.0,65.6,29.71,East,90,0.0,0.0,86,0.00,,RA,0.00,VWS V14.01,2013-06-08 01:43:00,
2013-06-07 21:48:00,70.0,65.6,29.71,East,90,0.0,0.0,86,0.00,,RA,0.00,VWS V14.01,2013-06-08 01:48:00,
2013-06-07 21:53:00,70.0,65.6,29.72,East,90,0.0,0.0,86,0.00,,RA,0.00,VWS V14.01,2013-06-08 01:53:00,
2013-06-07 21:58:00,70.0,65.6,29.72,East,90,0.0,0.0,86,0.00,,RA,0.00,VWS V14.01,2013-06-08 01:58:00,
2013-06-07 22:03:00,70.0,65.6,29.73,East,90,0.0,0.0,86,0.00,,-RA,0.00,VWS V14.01,2013-06-08 02:03:00,
2013-06-07 22:08:00,70.0,65.6,29.74,ENE,68,0.0,0.0,86,0.00,,-RA,0.00,VWS V14.01,2013-06-08 02:08:00,
2013-06-07 22:13:00,70.0,65.6,29.75,North,0,0.0,0.0,86,0.00,,-RA,0.00,VWS V14.01,2013-06-08 02:13:00,
2013-06-07 22:18:00,69.0,64.6,29.75,NNE,22,0.0,0.0,86,0.00,,-RA,0.00,VWS V14.01,2013-06-08 02:18:00,
2013-06-07 22:23:00,71.0,65.6,29.75,NW,315,0.0,0.0,83,0.00,, +RA,0.00,VWS V14.01,2013-06-08 02:23:00,
2013-06-07 22:28:00,70.0,64.6,29.76,NW,315,0.0,0.0,83,0.00,, +RA,0.00,VWS V14.01,2013-06-08 02:28:00,
2013-06-07 22:33:00,69.0,63.6,29.75,ENE,68,0.0,0.0,83,0.00,, +RA,0.00,VWS V14.01,2013-06-08 02:33:00,
2013-06-07 22:38:00,68.0,62.7,29.75,NW,315,0.0,0.0,83,0.00,, +RA,0.00,VWS V14.01,2013-06-08 02:38:00,
2013-06-07 22:44:00,68.0,62.7,29.75,NW,315,0.0,0.0,83,0.00,, +RA,0.00,VWS V14.01,2013-06-08 02:44:00,
2013-06-07 22:49:00,67.0,62.0,29.75,NW,315,0.0,0.0,84,0.00,, +RA,0.00,VWS V14.01,2013-06-08 02:49:00,
2013-06-07 22:54:00,67.0,62.3,29.75,NW,315,0.0,0.0,85,0.00,, +RA,0.00,VWS V14.01,2013-06-08 02:54:00,
2013-06-07 22:59:00,67.0,62.3,29.74,NW,315,0.0,0.0,85,0.00,, +RA,0.00,VWS V14.01,2013-06-08 02:59:00,
2013-06-07 23:04:00,66.0,61.4,29.74,NW,315,0.0,0.0,85,0.00,,-RA,0.00,VWS V14.01,2013-06-08 03:04:00,
2013-06-07 23:09:00,66.0,61.4,29.74,NW,315,0.0,0.0,85,0.00,,-RA,0.00,VWS V14.01,2013-06-08 03:09:00,
2013-06-07 23:14:00,66.0,61.7,29.73,NW,315,0.0,0.0,86,0.00,,-RA,0.00,VWS V14.01,2013-06-08 03:14:00,
2013-06-07 23:19:00,66.0,61.7,29.74,North,0,0.0,0.0,86,0.00,,-RA,0.00,VWS V14.01,2013-06-08 03:19:00,
2013-06-07 23:24:00,66.0,61.7,29.73,North,0,0.0,0.0,86,0.00,,BKN120,0.00,VWS V14.01,2013-06-08 03:24:00,
2013-06-07 23:29:00,66.0,61.7,29.73,North,0,0.0,0.0,86,0.00,,BKN120,0.00,VWS V14.01,2013-06-08 03:29:00,
2013-06-07 23:34:00,66.0,61.7,29.72,North,0,0.0,0.0,86,0.00,,BKN120,0.00,VWS V14.01,2013-06-08 03:34:00,
2013-06-07 23:39:00,66.0,61.7,29.73,North,0,0.0,0.0,86,0.00,,BKN120,0.00,VWS V14.01,2013-06-08 03:39:00,
2013-06-07 23:44:00,66.0,61.7,29.73,North,0,0.0,0.0,86,0.00,,-RA,0.00,VWS V14.01,2013-06-08 03:44:00,
2013-06-07 23:49:00,66.0,61.7,29.73,North,0,0.0,0.0,86,0.00,,-RA,0.00,VWS V14.01,2013-06-08 03:49:00,
2013-06-07 23:54:00,66.0,62.0,29.73,North,0,0.0,0.0,87,0.00,,-RA,0.00,VWS V14.01,2013-06-08 03:54:00,
2013-06-07 23:59:00,66.0,62.0,29.73,North,0,0.0,0.0,87,0.00,,-RA,0.00,VWS V14.01,2013-06-08 03:59:00,